This demonstration page uses our WeatherBlox Daily Observations layout. Learn more.

Left ArrowRight Arrow

Hourly Observations for October 14, 2022

Temp ( °F °C ) Dew Point ( °F °C ) Humidity (%) Winds ( mph kmh ) Pressure ( in mb ) Visibility ( mi km ) Precip ( " mm )
12:15 am 00:15 Cloudy 54 12 54 12 100 100 NNE 3 6 29.88 1012 10 16 0.00 0.00
12:35 am 00:35 Cloudy 54 12 54 12 100 100 Calm 29.88 1012 10 16 0.00 0.00
12:55 am 00:55 Cloudy 54 12 54 12 100 100 NNE 5 7 29.86 1011 10 16 0.00 0.00
1:15 am 01:15 Cloudy 54 12 54 12 100 100 NNE 3 6 29.87 1012 10 16 0.00 0.00
1:35 am 01:35 Cloudy 54 12 54 12 100 100 NNE 3 6 29.86 1011 10 16 0.00 0.00
1:55 am 01:55 Cloudy 54 12 54 12 100 100 Calm 29.86 1011 10 16 0.00 0.00
2:15 am 02:15 Cloudy 54 12 54 12 100 100 Calm 29.88 1012 10 16 0.00 0.00
2:35 am 02:35 Cloudy 54 12 54 12 100 100 Calm 29.88 1012 10 16 0.00 0.00
2:55 am 02:55 Cloudy 54 12 54 12 100 100 Calm 29.87 1012 10 16 0.00 0.00
3:15 am 03:15 Cloudy 54 12 54 12 100 100 Calm 29.87 1012 10 16 0.00 0.00
3:35 am 03:35 Mostly Cloudy 54 12 54 12 100 100 Calm 29.87 1012 10 16 0.00 0.00
3:55 am 03:55 Cloudy 54 12 54 12 100 100 Calm 29.87 1012 10 16 0.00 0.00
4:15 am 04:15 Cloudy 54 12 54 12 100 100 Calm 29.87 1012 10 16 0.00 0.00
4:35 am 04:35 Cloudy 54 12 54 12 100 100 Calm 29.88 1012 5 8 0.00 0.00
4:55 am 04:55 Cloudy 54 12 54 12 100 100 Calm 29.88 1012 5 8 0.00 0.00
5:15 am 05:15 Cloudy 54 12 54 12 100 100 Calm 29.89 1012 5 8 0.00 0.00
5:35 am 05:35 Cloudy 54 12 54 12 100 100 Calm 29.89 1012 5 8 0.00 0.00
5:55 am 05:55 Cloudy 54 12 54 12 100 100 Calm 29.89 1012 5 8 0.00 0.00
6:15 am 06:15 Cloudy 54 12 54 12 100 100 Calm 29.89 1012 7 11 0.00 0.00
6:35 am 06:35 Cloudy 52 11 52 11 100 100 Calm 29.90 1013 5 8 0.00 0.00
6:55 am 06:55 Cloudy 52 11 52 11 100 100 Calm 29.90 1013 5 8 0.00 0.00
7:15 am 07:15 Cloudy 52 11 52 11 100 100 Calm 29.90 1013 4 6 0.00 0.00
7:35 am 07:35 Cloudy 52 11 52 11 100 100 Calm 29.92 1013 0 0 0.00 0.00
7:55 am 07:55 Cloudy 50 10 50 10 100 100 Calm 29.93 1013 1 2 0.00 0.00
8:15 am 08:15 Cloudy 52 11 52 11 100 100 Calm 29.93 1014 0 0 0.00 0.00
8:35 am 08:35 Cloudy 52 11 52 11 100 100 Calm 29.95 1014 2 3 0.00 0.00
8:55 am 08:55 Partly Cloudy 52 11 52 11 100 100 Calm 29.95 1014 7 11 0.00 0.00
9:15 am 09:15 Partly Cloudy 54 12 54 12 100 100 Calm 29.96 1015 4 6 0.00 0.00
9:35 am 09:35 Mostly Cloudy 54 12 54 12 100 100 W 5 7 29.97 1015 7 11 0.00 0.00
9:55 am 09:55 Mostly Cloudy 55 13 55 13 100 100 WSW 3 6 29.98 1015 10 16 0.00 0.00
10:15 am 10:15 Partly Cloudy 57 14 55 13 94 94 SSW 5 7 29.98 1015 10 16 0.00 0.00
10:35 am 10:35 Sunny 59 15 54 12 82 82 S 3 6 29.98 1015 10 16 0.00 0.00
10:55 am 10:55 Partly Cloudy 59 15 54 12 82 82 SSW 6 9 29.98 1015 10 16 0.00 0.00
11:15 am 11:15 Sunny 61 16 52 11 72 72 S 6 9 29.98 1015 10 16 0.00 0.00
11:35 am 11:35 Sunny 61 16 50 10 68 68 SSE 5 7 29.98 1015 10 16 0.00 0.00
11:55 am 11:55 Sunny 63 17 52 11 68 68 S 7 11 29.98 1015 10 16 0.00 0.00
12:15 pm 12:15 Sunny 64 18 46 8 52 52 S 5 7 29.97 1015 10 16 0.00 0.00
12:35 pm 12:35 Sunny 64 18 50 10 59 59 SW 7 11 29.96 1015 10 16 0.00 0.00
12:55 pm 12:55 Sunny 64 18 46 8 52 52 SSW 7 11 29.95 1014 10 16 0.00 0.00
1:15 pm 13:15 Sunny 66 19 46 8 49 49 SSW 6 9 29.94 1014 10 16 0.00 0.00
1:35 pm 13:35 Sunny 66 19 46 8 49 49 S 3 6 29.94 1014 10 16 0.00 0.00
1:55 pm 13:55 Sunny 68 20 45 7 43 43 SSE 9 15 29.93 1014 10 16 0.00 0.00
2:15 pm 14:15 Sunny 68 20 45 7 43 43 S 5 7 29.92 1013 10 16 0.00 0.00
2:35 pm 14:35 Sunny 68 20 45 7 43 43 SSW 7 11 29.92 1013 10 16 0.00 0.00
2:55 pm 14:55 Sunny 68 20 41 5 37 37 S 8 13 29.92 1013 10 16 0.00 0.00
3:15 pm 15:15 Sunny 68 20 43 6 40 40 S 9 15 29.92 1013 10 16 0.00 0.00
3:35 pm 15:35 Sunny 68 20 43 6 40 40 SSW 9 15 29.91 1013 10 16 0.00 0.00
3:55 pm 15:55 Sunny 68 20 43 6 40 40 S 8 13 29.92 1013 10 16 0.00 0.00
4:15 pm 16:15 Sunny 68 20 43 6 40 40 S 10 17 29.92 1013 10 16 0.00 0.00
4:35 pm 16:35 Partly Cloudy 68 20 45 7 43 43 SSE 9 15 29.92 1013 10 16 0.00 0.00
4:55 pm 16:55 Sunny 68 20 45 7 43 43 S 8 13 29.92 1013 10 16 0.00 0.00
5:15 pm 17:15 Sunny 68 20 45 7 43 43 S 6 9 29.93 1014 10 16 0.00 0.00
5:35 pm 17:35 Partly Cloudy 68 20 45 7 43 43 S 9 15 29.93 1014 10 16 0.00 0.00
5:55 pm 17:55 Partly Cloudy 68 20 43 6 40 40 SSE 9 15 29.93 1014 10 16 0.00 0.00
6:15 pm 18:15 Sunny 64 18 45 7 49 49 SSE 7 11 29.94 1014 10 16 0.00 0.00
6:35 pm 18:35 Clear 64 18 45 7 49 49 SSE 6 9 29.94 1014 10 16 0.00 0.00
6:55 pm 18:55 Clear 63 17 43 6 48 48 SSE 8 13 29.95 1014 10 16 0.00 0.00
7:15 pm 19:15 Clear 63 17 45 7 52 52 SSE 6 9 29.95 1014 10 16 0.00 0.00
7:35 pm 19:35 Clear 63 17 45 7 52 52 SSE 6 9 29.97 1015 10 16 0.00 0.00
7:55 pm 19:55 Clear 61 16 45 7 55 55 SSE 7 11 29.97 1015 10 16 0.00 0.00
8:15 pm 20:15 Clear 57 14 46 8 67 67 SSE 3 6 29.98 1015 10 16 0.00 0.00
8:35 pm 20:35 Clear 55 13 46 8 72 72 S 3 6 29.98 1015 10 16 0.00 0.00
8:55 pm 20:55 Clear 54 12 46 8 76 76 SSW 3 6 29.99 1016 10 16 0.00 0.00
9:15 pm 21:15 Clear 54 12 46 8 76 76 Calm 30.00 1016 10 16 0.00 0.00
9:35 pm 21:35 Clear 54 12 46 8 76 76 Calm 30.00 1016 10 16 0.00 0.00
9:55 pm 21:55 Clear 52 11 46 8 82 82 Calm 30.01 1016 10 16 0.00 0.00
10:15 pm 22:15 Clear 52 11 46 8 82 82 Calm 30.03 1017 10 16 0.00 0.00
10:35 pm 22:35 Clear 52 11 46 8 82 82 Calm 30.03 1017 10 16 0.00 0.00
10:55 pm 22:55 Clear 50 10 46 8 87 87 Calm 30.03 1017 10 16 0.00 0.00
11:15 pm 23:15 Clear 48 9 46 8 93 93 Calm 30.04 1017 10 16 0.00 0.00
11:35 pm 23:35 Clear 46 8 46 8 100 100 NW 3 6 30.04 1017 10 16 0.00 0.00
11:55 pm 23:55 Clear 46 8 45 7 93 93 NW 3 6 30.05 1018 10 16 0.00 0.00

Powered by AerisWeather